Location: Misciano
(43.5000°N, 11.9500°E)
Time: 14:42:50
(UTC+00:00)

H-2A R/B - Pass Details

Date: 13 August 2020
Orbit: 575 x 597 km, 98.2° (Epoch: 19 September)

Event Time Altitude Azimuth Distance (km) Brightness Sun altitude
Rises 19:16:27 0° 25° (NNE) 2,808 7.0 -10.3°
Reaches altitude 10° 19:18:54 10° 38° (NE) 1,907 6.0 -10.7°
Maximum altitude 19:22:22 26° 96° (E) 1,170 4.5 -11.3°
Enters shadow 19:24:53 15° 144° (SE) 1,597 5.1 -11.6°
